Weather History for Dundee, United Kingdom

Change the Weather History Date:

Sunday, September 16, 2012

  Actual Average Record
Temperature  
Mean Temperature 54 °F -  
Max Temperature 57 °F 56 °F 66 °F (2003)
Min Temperature 48 °F 48 °F 41 °F (2005)
Degree Days  
Heating Degree Days 12    
Growing Degree Days 4 (Base 50)    
Moisture  
Dew Point 48 °F    
Average Humidity 84    
Maximum Humidity 94    
Minimum Humidity 76    
Precipitation  
Precipitation 0.00 in - - ()
Sea Level Pressure  
Sea Level Pressure 29.55 in    
Wind  
Wind Speed 18 mph ()    
Max Wind Speed 25 mph    
Max Gust Speed -    
Visibility 6.0 miles    
Events Rain    
Averages and records for this station are not official NWS values.
T = Trace of Precipitation, MM = Missing Value Source: Averaged Metar Reports

Daily Weather History Graph

Daily Weather History Graph

Search for Another Location

Airport:

Trip Planner

Search our weather history database for the weather conditions in past years. The results will help you decide how hot, cold, wet, or windy it might be!

Date:

Astronomy

Sep. 16, 2012 Rise Set
Actual Time 6:45 AM BST 7:26 PM BST
Civil Twilight 6:07 AM BST 8:04 PM BST
Nautical Twilight 5:21 AM BST 8:50 PM BST
Astronomical Twilight 4:31 AM BST 9:39 PM BST
Moon 7:24 AM BST (9/16) 7:01 PM BST (9/16)
Length of Visible Light 13h 56m
Length of Day
12h 40m
New Moon, 0% of the Moon is Illuminated
Sep 16
New Moon
Sep 22
First Quarter
Sep 30
Full
Oct 8
Last Quarter
Oct 15
New

Hourly Weather History & Observations

Time (BST) Temp. Dew Point Humidity Pressure Visibility Wind Dir Wind Speed Gust Speed Precip Events Conditions
8:20 AM 50.0 °F 46.4 °F 87% 29.59 in 6.2 mi WSW 25.3 mph - N/A   Mostly Cloudy
8:50 AM 53.6 °F 50.0 °F 88% 29.59 in 6.2 mi WSW 21.9 mph - N/A   Mostly Cloudy
9:20 AM 53.6 °F 50.0 °F 88% 29.56 in 6.2 mi WSW 20.7 mph - N/A   Mostly Cloudy
9:50 AM 51.8 °F 48.2 °F 88% 29.56 in 6.2 mi WSW 21.9 mph - N/A   Mostly Cloudy
10:20 AM 55.4 °F 50.0 °F 82% 29.56 in 6.2 mi WSW 20.7 mph - N/A   Mostly Cloudy
10:50 AM 55.4 °F 51.8 °F 88% 29.56 in 6.2 mi SW 24.2 mph - N/A   Mostly Cloudy
11:20 AM 55.4 °F 51.8 °F 88% 29.56 in 6.2 mi WSW 23.0 mph - N/A   Mostly Cloudy
11:50 AM 57.2 °F 51.8 °F 82% 29.56 in 6.2 mi SW 21.9 mph - N/A   Mostly Cloudy
12:20 PM 55.4 °F 50.0 °F 82% 29.56 in 4.3 mi WSW 21.9 mph - N/A Rain Rain
12:50 PM 53.6 °F 51.8 °F 94% 29.56 in 4.3 mi WSW 19.6 mph - N/A Rain Rain
1:20 PM 53.6 °F 50.0 °F 88% 29.56 in 4.3 mi West 16.1 mph - N/A   Mostly Cloudy
1:50 PM 53.6 °F 50.0 °F 88% 29.56 in 6.2 mi WSW 10.4 mph - N/A   Scattered Clouds
2:20 PM 53.6 °F 50.0 °F 88% 29.53 in 6.2 mi WSW 11.5 mph - N/A   Scattered Clouds
2:50 PM 55.4 °F 50.0 °F 82% 29.53 in 6.2 mi WSW 12.7 mph - N/A   Scattered Clouds
3:20 PM 53.6 °F 50.0 °F 88% 29.53 in 6.2 mi WSW 12.7 mph - N/A   Scattered Clouds
3:50 PM 55.4 °F 48.2 °F 77% 29.53 in 6.2 mi WSW 13.8 mph - N/A   Mostly Cloudy
4:20 PM 53.6 °F 48.2 °F 82% 29.53 in 6.2 mi WSW 23.0 mph - N/A Rain Rain Showers
4:50 PM 51.8 °F 46.4 °F 82% 29.53 in 6.2 mi West 12.7 mph - N/A   Mostly Cloudy
5:20 PM 55.4 °F 48.2 °F 77% 29.53 in 6.2 mi WSW 20.7 mph - N/A   Scattered Clouds
5:50 PM 53.6 °F 46.4 °F 77% 29.53 in 6.2 mi West 20.7 mph - N/A   Scattered Clouds
6:20 PM 51.8 °F 44.6 °F 76% 29.53 in 6.2 mi WSW 21.9 mph - N/A   Partly Cloudy
6:50 PM 51.8 °F 46.4 °F 82% 29.53 in 6.2 mi WSW 20.7 mph - N/A   Partly Cloudy
7:20 PM 51.8 °F 44.6 °F 76% 29.53 in 6.2 mi WSW 19.6 mph - N/A   Partly Cloudy
7:50 PM 50.0 °F 44.6 °F 82% 29.56 in 6.2 mi WSW 19.6 mph - N/A   Partly Cloudy
8:20 PM 50.0 °F 44.6 °F 82% 29.56 in 6.2 mi West 15.0 mph - N/A   Partly Cloudy
8:50 PM 50.0 °F 44.6 °F 82% 29.56 in 6.2 mi WSW 19.6 mph - N/A   Partly Cloudy
9:20 PM 48.2 °F 44.6 °F 87% 29.59 in 6.2 mi West 15.0 mph - N/A   Partly Cloudy